Zurück zum Katalog

STARLINK-34534

AktivKommunikationVLEO
NORAD 64763·PAYLOAD·🇺🇸 United States

Gestartet Jul 8, 2025 von Cape Canaveral Space Force Station

Loading…

Nächste Überflüge (nächste 24 Stunden)

TLE

AktuellSource: CelesTrak SupGP

Epoche: Sep 15, 2026, 03:56 UTC

1 64763C 25147J   26258.16437500 -.00024122  00000+0 -71277-3 0  2581
2 64763  53.1577  78.7702 0001229  90.0989 357.1838 15.34398733    18

Verfolge STARLINK-34534 in Echtzeit mit AllMySat

Download on the App Store